This is the latest recevied weather packets stored in our database for station/object KB1JLI. If no packets are shown the sender has not sent any weather packets the latest 10 day(s).
| Time | Temp. | Humidity | Pressure | Rain* | Wind** | Luminosity | Snow |
|---|---|---|---|---|---|---|---|
| 1777705559 | 7.78° C | 81% | 1011.7 hPa | 0 mm | - | 0 W/m² | - |
| 1777705257 | 7.78° C | 79% | 1011.5 hPa | 0 mm | - | 0 W/m² | - |
| 1777704955 | 7.78° C | 78% | 1011.8 hPa | 0 mm | - | 0 W/m² | - |
| 1777704652 | 7.78° C | 80% | 1011.6 hPa | 0 mm | - | 0 W/m² | - |
| 1777704351 | 7.22° C | 80% | 1011.3 hPa | 0 mm | - | 0 W/m² | - |
| 1777704048 | 6.67° C | 83% | 1011.4 hPa | 0 mm | - | 0 W/m² | - |
| 1777703745 | 6.67° C | 84% | 1011.3 hPa | 0 mm | - | 0 W/m² | - |
| 1777703443 | 6.67° C | 84% | 1011.3 hPa | 0 mm | - | 0 W/m² | - |
| 1777703140 | 6.67° C | 84% | 1011.4 hPa | 0 mm | - | 0 W/m² | - |
| 1777702838 | 6.11° C | 84% | 1011.4 hPa | 0 mm | - | 0 W/m² | - |
| 1777702536 | 6.11° C | 83% | 1011.4 hPa | 0 mm | - | 0 W/m² | - |
| 1777702232 | 6.11° C | 83% | 1011.5 hPa | 0 mm | - | 0 W/m² | - |
| 1777701928 | 6.11° C | 82% | 1011.7 hPa | 0 mm | - | 0 W/m² | - |
| 1777701625 | 6.11° C | 82% | 1011.7 hPa | 0 mm | - | 0 W/m² | - |
| 1777701322 | 6.67° C | 82% | 1011.8 hPa | 0 mm | - | 0 W/m² | - |
| 1777701021 | 6.67° C | 81% | 1011.7 hPa | 0 mm | - | 0 W/m² | - |
| 1777700719 | 6.67° C | 82% | 1011.8 hPa | 0 mm | - | 0 W/m² | - |
| 1777700416 | 6.67° C | 81% | 1011.7 hPa | 0 mm | - | 0 W/m² | - |
| 1777700113 | 6.67° C | 80% | 1011.7 hPa | 0 mm | - | 0 W/m² | - |
| 1777699811 | 7.22° C | 81% | 1011.8 hPa | 0 mm | - | 0 W/m² | - |
| 1777699509 | 7.22° C | 79% | 1011.6 hPa | 0 mm | - | 0 W/m² | - |
| 1777699207 | 7.22° C | 78% | 1011.5 hPa | 0 mm | - | 0 W/m² | - |
| 1777698905 | 7.22° C | 76% | 1011.8 hPa | 0 mm | - | 0 W/m² | - |
| 1777698601 | 7.78° C | 75% | 1011.9 hPa | 0 mm | - | 0 W/m² | - |
| 1777698297 | 7.78° C | 73% | 1012.2 hPa | 0 mm | - | 0 W/m² | - |
* Rain latest hour (hover to see other rain measurements)
** Current wind speed in m/s (hover to see current wind gust speed)